Regional Weather Roundup
Issued by NWS

Home | Current Version | Previous Version | Graphics & Text | Print | Product List | Glossary On
Versions: 1 2 3 4 5 6 7 8 9 10 11 12 13 14 15 16 17 18 19 20 21 22 23 24 25 26 27 28 29 30 31 32 33 34 35 36 37 38 39 40 41 42 43 44 45 46 47 48 49 50
000
ASUS44 KMEG 310410
RWRTN
TENNESSEE HOURLY STATE WEATHER ROUNDUP
NATIONAL WEATHER SERVICE MEMPHIS TN
1100 PM CDT SAT AUG 30 2014

TNZ002-004-019-021-049-052-054-088>092-310500-
WEST TENNESSEE

CITY           SKY/WX    TMP DP  RH WIND       PRES   REMARKS
MEMPHIS INTL   CLOUDY    74  70  87 S12       30.00F
NWS MEMPHIS      N/A     72 N/A N/A MISG        N/A
JACKSON        LGT RAIN  72  70  93 VRB3      30.03F
DYERSBURG      CLOUDY    72  63  73 S5        30.01F
UNION CITY     CLEAR     72  72 100 S7        29.99F
PARIS          MOCLDY    72  70  94 S6        30.03F
HUNTINGDON     CLOUDY    71  69  93 S6        30.03F
LEXINGTON      MOCLDY    72  72 100 S5        30.05S
SAVANNAH       MOCLDY    72  72 100 S5        30.07S
$$

TNZ008-025-027-028-033-062-065-066-310500-
NORTH MIDDLE TENNESSEE

CITY           SKY/WX    TMP DP  RH WIND       PRES   REMARKS
NASHVILLE      CLOUDY    71  70  96 SW3       30.07F
DICKSON        CLOUDY    72  72 100 S7        30.07F
PORTLAND       CLOUDY    72  72 100 S6        30.06F
CLARKSVILLE    LGT RAIN  74  71  91 S5        30.04F
LEBANON        CLOUDY    71  69  93 CALM      30.06F
SMYRNA         CLOUDY    71  70  97 CALM      30.07F
MURFREESBORO   CLOUDY    71  70  97 CALM      30.06
COOKEVILLE     CLEAR     70  70 100 E6        30.09F
LIVINGSTON     CLOUDY    68  67  96 S5        30.13
GALLATIN       CLOUDY    72  71  96 S5        30.08F
CROSSVILLE     CLOUDY    75  66  73 VRB5      30.16F
$$

TNZ061-075-076-078-094-096-097-310500-
SOUTH MIDDLE TENNESSEE

CITY           SKY/WX    TMP DP  RH WIND       PRES   REMARKS
LEWISBURG      CLOUDY    71  69  93 CALM      30.08F
FAYETTEVILLE   PTCLDY    68  66  94 S8        30.12R
TULLAHOMA      CLOUDY    70  68  94 S3        30.14R
WINCHESTER     MOCLDY    70  70 100 CALM      30.13R
MCMINNVILLE    CLEAR     72  72 100 CALM      30.11S
COLUMBIA         N/A     72  72 100 CALM      30.06F
SHELBYVILLE    CLEAR     72  72 100 S5        30.11R
$$

TNZ017-018-042-046-047-310500-
NORTHEAST TENNESSEE

CITY           SKY/WX    TMP DP  RH WIND       PRES   REMARKS
TRI CITIES     CLOUDY    74  65  73 CALM      30.15F
ELIZABETHTON   CLEAR     70  64  83 CALM      30.17F
$$

TNZ012-013-036-069-073-074-310500-
CENTRAL EAST TENNESSEE

CITY           SKY/WX    TMP DP  RH WIND       PRES   REMARKS
KNOXVILLE      LGT RAIN  70  69  97 S7        30.18R
OAK RIDGE      LGT RAIN  72  70  93 SW3       30.18R
GATLINBURG     CLOUDY    75  72  88 W6        30.14R
MORRISTOWN     MOCLDY    75  73  94 CALM      30.15F
$$

TNZ083-085-099-310500-
SOUTHEAST TENNESSEE

CITY           SKY/WX    TMP DP  RH WIND       PRES   REMARKS
CHATTANOOGA    CLOUDY    73  69  87 S3        30.14R
$$

SKY/WX REPORTED AS FAIR MEANS FEW OR NO CLOUDS BELOW
12 THOUSAND FEET.



USA.gov is the U.S. government's official web portal to all federal, state and local government web resources and services.